Weather History for Beaufort, NC

Change the Weather History Date:

Friday, August 31, 2012

  Actual Average Record
Temperature  
Mean Temperature 76 °F -  
Max Temperature 84 °F 85 °F 93 °F (1948)
Min Temperature 68 °F 69 °F 58 °F (1976)
Cooling Degree Days 11    
Growing Degree Days 26 (Base 50)    
Moisture  
Dew Point 73 °F    
Average Humidity 83    
Maximum Humidity 100    
Minimum Humidity 71    
Precipitation  
Precipitation 0.01 in - - ()
Sea Level Pressure  
Sea Level Pressure 30.17 in    
Wind  
Wind Speed 6 mph (SW)    
Max Wind Speed 15 mph    
Max Gust Speed -    
Visibility 10 miles    
Events      
Averages and records for this station are not official NWS values.
T = Trace of Precipitation, MM = Missing Value Source: NWS Daily Summary

Daily Weather History Graph

Daily Weather History Graph

Search for Another Location

Airport:

Trip Planner

Search our weather history database for the weather conditions in past years. The results will help you decide how hot, cold, wet, or windy it might be!

Date:

Astronomy

Aug. 31, 2012 Rise Set
Actual Time 6:39 AM EDT 7:33 PM EDT
Civil Twilight 6:13 AM EDT 7:59 PM EDT
Nautical Twilight 5:42 AM EDT 8:29 PM EDT
Astronomical Twilight 5:11 AM EDT 9:01 PM EDT
Moon 7:22 PM EDT (8/31) 6:39 AM EDT (8/31)
Length of Visible Light 13h 46m
Length of Day
12h 54m
Full, 100% of the Moon is Illuminated
Aug 31
Full
Sep 8
Last Quarter
Sep 15
New
Sep 22
First Quarter
Sep 29
Full

Hourly Weather History & Observations

Time (EDT) Temp. Heat Index Dew Point Humidity Pressure Visibility Wind Dir Wind Speed Gust Speed Precip Events Conditions
12:56 AM 71.1 °F - 70.0 °F 96% 30.17 in 9.0 mi Calm Calm - N/A   Clear
1:56 AM 71.1 °F - 70.0 °F 96% 30.17 in 8.0 mi Calm Calm - N/A   Clear
2:56 AM 70.0 °F - 69.1 °F 97% 30.17 in 9.0 mi Calm Calm - N/A   Clear
3:56 AM 70.0 °F - 69.1 °F 97% 30.17 in 8.0 mi Calm Calm - N/A   Clear
4:56 AM 70.0 °F - 69.1 °F 97% 30.17 in 8.0 mi Calm Calm - N/A   Clear
5:56 AM 68.0 °F - 68.0 °F 100% 30.18 in 7.0 mi Calm Calm - N/A   Clear
6:56 AM 70.0 °F - 69.1 °F 97% 30.19 in 10.0 mi South 3.5 mph - 0.01 in   Clear
7:56 AM 78.1 °F - 73.0 °F 84% 30.21 in 10.0 mi South 5.8 mph - N/A   Clear
8:56 AM 80.1 °F 83.8 °F 72.0 °F 76% 30.22 in 10.0 mi South 9.2 mph - N/A   Clear
9:56 AM 82.0 °F 87.4 °F 73.0 °F 74% 30.23 in 10.0 mi SW 9.2 mph - N/A   Partly Cloudy
10:56 AM 82.0 °F 86.7 °F 72.0 °F 71% 30.23 in 10.0 mi SW 10.4 mph - N/A   Clear
11:56 AM 82.0 °F 87.4 °F 73.0 °F 74% 30.22 in 10.0 mi WSW 9.2 mph - N/A   Partly Cloudy
12:11 PM 82.4 °F 88.2 °F 73.4 °F 74% 30.22 in 10.0 mi SSW 11.5 mph - N/A   Mostly Cloudy
12:43 PM 82.4 °F 88.2 °F 73.4 °F 74% 30.21 in 10.0 mi SW 9.2 mph - N/A   Scattered Clouds
12:56 PM 84.0 °F 91.2 °F 73.9 °F 72% 30.21 in 10.0 mi SSW 11.5 mph - N/A   Mostly Cloudy
1:23 PM 82.4 °F 88.2 °F 73.4 °F 74% 30.20 in 10.0 mi SSW 12.7 mph - N/A   Scattered Clouds
1:56 PM 82.9 °F 89.4 °F 73.9 °F 74% 30.19 in 10.0 mi SW 13.8 mph - N/A   Clear
2:56 PM 82.9 °F 89.4 °F 73.9 °F 74% 30.16 in 10.0 mi SW 13.8 mph - N/A   Clear
3:56 PM 82.9 °F 90.2 °F 75.0 °F 77% 30.14 in 10.0 mi SSW 15.0 mph - N/A   Clear
4:56 PM 82.9 °F 90.2 °F 75.0 °F 77% 30.13 in 10.0 mi SW 15.0 mph - N/A   Clear
5:56 PM 82.0 °F 87.9 °F 73.9 °F 76% 30.13 in 10.0 mi SW 13.8 mph - N/A   Clear
6:56 PM 80.1 °F 84.5 °F 73.9 °F 81% 30.12 in 10.0 mi SSW 12.7 mph - N/A   Clear
7:56 PM 80.1 °F 85.1 °F 75.0 °F 85% 30.12 in 10.0 mi SW 11.5 mph - N/A   Clear
8:56 PM 80.1 °F 85.1 °F 75.0 °F 85% 30.13 in 10.0 mi SW 12.7 mph - N/A   Clear
9:56 PM 80.1 °F 85.1 °F 75.0 °F 85% 30.14 in 10.0 mi SW 12.7 mph - N/A   Clear
10:56 PM 80.1 °F 85.4 °F 75.9 °F 87% 30.14 in 10.0 mi SW 12.7 mph - N/A   Partly Cloudy
11:56 PM 80.1 °F 85.4 °F 75.9 °F 87% 30.14 in 10.0 mi SW 12.7 mph - N/A   Scattered Clouds